Time,TemperatureF,DewpointF,PressureIn,WindDirection,WindDirectionDegrees,WindSpeedMPH,WindSpeedGustMPH,Humidity,HourlyPrecipIn,Conditions,Clouds,dailyrainin,SoftwareType,DateUTC
2013-07-15 00:00:00,73.2,72.0,30.15,North,-999,-999.0,-999.0,95,-99.99,,,-99.99,Homeseer,2013-07-15 04:00:00,
2013-07-15 00:01:00,73.2,72.0,30.15,North,-999,-999.0,-999.0,95,-99.99,,,-99.99,Homeseer,2013-07-15 04:01:00,
2013-07-15 00:02:00,73.2,72.0,30.14,North,-999,-999.0,-999.0,95,-99.99,,,-99.99,Homeseer,2013-07-15 04:02:00,
2013-07-15 00:05:00,73.2,71.8,30.15,North,-999,-999.0,-999.0,94,-99.99,,,-99.99,Homeseer,2013-07-15 04:05:00,
2013-07-15 00:09:00,73.1,71.9,30.15,North,-999,-999.0,-999.0,95,-99.99,,,-99.99,Homeseer,2013-07-15 04:09:00,
2013-07-15 00:14:00,73.0,72.1,30.14,North,-999,-999.0,-999.0,96,-99.99,,,-99.99,Homeseer,2013-07-15 04:14:00,
2013-07-15 00:15:00,73.0,72.1,30.15,North,-999,-999.0,-999.0,96,-99.99,,,-99.99,Homeseer,2013-07-15 04:15:00,
2013-07-15 00:20:00,73.0,72.1,30.15,North,-999,-999.0,-999.0,96,-99.99,,,-99.99,Homeseer,2013-07-15 04:20:00,
2013-07-15 00:25:00,73.1,71.9,30.15,North,-999,-999.0,-999.0,95,-99.99,,,-99.99,Homeseer,2013-07-15 04:25:00,
2013-07-15 00:30:00,73.1,71.9,30.14,North,-999,-999.0,-999.0,95,-99.99,,,-99.99,Homeseer,2013-07-15 04:30:00,
2013-07-15 00:35:00,73.1,71.9,30.13,North,-999,-999.0,-999.0,95,-99.99,,,-99.99,Homeseer,2013-07-15 04:35:00,
2013-07-15 00:40:00,73.0,71.8,30.14,North,-999,-999.0,-999.0,95,-99.99,,,-99.99,Homeseer,2013-07-15 04:40:00,
2013-07-15 00:45:00,73.0,71.8,30.13,North,-999,-999.0,-999.0,95,-99.99,,,-99.99,Homeseer,2013-07-15 04:45:00,
2013-07-15 00:50:00,72.9,72.0,30.13,North,-999,-999.0,-999.0,96,-99.99,,,-99.99,Homeseer,2013-07-15 04:50:00,
2013-07-15 00:55:00,72.8,71.9,30.13,North,-999,-999.0,-999.0,96,-99.99,,,-99.99,Homeseer,2013-07-15 04:55:00,
2013-07-15 01:00:00,72.8,71.9,30.13,North,-999,-999.0,-999.0,96,-99.99,,,-99.99,Homeseer,2013-07-15 05:00:00,
2013-07-15 01:05:00,72.6,71.7,30.13,North,-999,-999.0,-999.0,96,-99.99,,,-99.99,Homeseer,2013-07-15 05:05:00,
2013-07-15 01:10:00,72.6,71.7,30.13,North,-999,-999.0,-999.0,96,-99.99,,,-99.99,Homeseer,2013-07-15 05:10:00,
2013-07-15 01:15:00,72.6,71.4,30.13,North,-999,-999.0,-999.0,95,-99.99,,,-99.99,Homeseer,2013-07-15 05:15:00,
2013-07-15 01:20:00,72.5,71.6,30.13,North,-999,-999.0,-999.0,96,-99.99,,,-99.99,Homeseer,2013-07-15 05:20:00,
2013-07-15 01:25:00,72.6,71.4,30.13,North,-999,-999.0,-999.0,95,-99.99,,,-99.99,Homeseer,2013-07-15 05:25:00,
2013-07-15 01:30:00,72.5,71.6,30.13,North,-999,-999.0,-999.0,96,-99.99,,,-99.99,Homeseer,2013-07-15 05:30:00,
2013-07-15 01:35:00,72.4,71.5,30.13,North,-999,-999.0,-999.0,96,-99.99,,,-99.99,Homeseer,2013-07-15 05:35:00,
2013-07-15 01:40:00,72.3,71.4,30.13,North,-999,-999.0,-999.0,96,-99.99,,,-99.99,Homeseer,2013-07-15 05:40:00,
2013-07-15 01:45:00,72.4,71.5,30.13,North,-999,-999.0,-999.0,96,-99.99,,,-99.99,Homeseer,2013-07-15 05:45:00,
2013-07-15 01:50:00,72.4,71.5,30.13,North,-999,-999.0,-999.0,96,-99.99,,,-99.99,Homeseer,2013-07-15 05:50:00,
2013-07-15 01:55:00,72.4,71.5,30.13,North,-999,-999.0,-999.0,96,-99.99,,,-99.99,Homeseer,2013-07-15 05:55:00,
2013-07-15 02:00:00,72.4,71.5,30.13,North,-999,-999.0,-999.0,96,-99.99,,,-99.99,Homeseer,2013-07-15 06:00:00,
2013-07-15 02:05:00,72.3,71.4,30.13,North,-999,-999.0,-999.0,96,-99.99,,,-99.99,Homeseer,2013-07-15 06:05:00,
2013-07-15 02:10:00,72.2,71.5,30.13,North,-999,-999.0,-999.0,97,-99.99,,,-99.99,Homeseer,2013-07-15 06:10:00,
2013-07-15 02:15:00,72.3,71.4,30.12,North,-999,-999.0,-999.0,96,-99.99,,,-99.99,Homeseer,2013-07-15 06:15:00,
2013-07-15 02:20:00,72.3,71.4,30.12,North,-999,-999.0,-999.0,96,-99.99,,,-99.99,Homeseer,2013-07-15 06:20:00,
2013-07-15 02:25:00,72.3,71.4,30.12,North,-999,-999.0,-999.0,96,-99.99,,,-99.99,Homeseer,2013-07-15 06:25:00,
2013-07-15 02:30:00,72.3,71.4,30.12,North,-999,-999.0,-999.0,96,-99.99,,,-99.99,Homeseer,2013-07-15 06:30:00,
2013-07-15 02:35:00,72.3,71.4,30.12,North,-999,-999.0,-999.0,96,-99.99,,,-99.99,Homeseer,2013-07-15 06:35:00,
2013-07-15 02:40:00,72.3,71.4,30.12,North,-999,-999.0,-999.0,96,-99.99,,,-99.99,Homeseer,2013-07-15 06:40:00,
2013-07-15 02:45:00,72.2,71.0,30.12,North,-999,-999.0,-999.0,95,-99.99,,,-99.99,Homeseer,2013-07-15 06:45:00,
2013-07-15 02:51:00,72.0,71.1,30.11,North,-999,-999.0,-999.0,96,-99.99,,,-99.99,Homeseer,2013-07-15 06:51:00,
2013-07-15 02:56:00,71.9,71.0,30.11,North,-999,-999.0,-999.0,96,-99.99,,,-99.99,Homeseer,2013-07-15 06:56:00,
2013-07-15 03:01:00,71.8,70.9,30.11,North,-999,-999.0,-999.0,96,-99.99,,,-99.99,Homeseer,2013-07-15 07:01:00,
2013-07-15 03:06:00,71.8,70.9,30.11,North,-999,-999.0,-999.0,96,-99.99,,,-99.99,Homeseer,2013-07-15 07:06:00,
2013-07-15 03:11:00,71.5,70.6,30.11,North,-999,-999.0,-999.0,96,-99.99,,,-99.99,Homeseer,2013-07-15 07:11:00,
2013-07-15 03:17:00,71.4,70.5,30.11,North,-999,-999.0,-999.0,96,-99.99,,,-99.99,Homeseer,2013-07-15 07:17:00,
2013-07-15 03:22:00,71.3,70.4,30.11,North,-999,-999.0,-999.0,96,-99.99,,,-99.99,Homeseer,2013-07-15 07:22:00,
2013-07-15 03:27:00,71.2,70.3,30.12,North,-999,-999.0,-999.0,96,-99.99,,,-99.99,Homeseer,2013-07-15 07:27:00,
2013-07-15 03:32:00,71.0,70.3,30.11,North,-999,-999.0,-999.0,97,-99.99,,,-99.99,Homeseer,2013-07-15 07:32:00,
2013-07-15 03:37:00,71.0,70.1,30.11,North,-999,-999.0,-999.0,96,-99.99,,,-99.99,Homeseer,2013-07-15 07:37:00,
2013-07-15 03:42:00,70.8,69.9,30.11,North,-999,-999.0,-999.0,96,-99.99,,,-99.99,Homeseer,2013-07-15 07:42:00,
2013-07-15 03:47:00,70.7,69.8,30.12,North,-999,-999.0,-999.0,96,-99.99,,,-99.99,Homeseer,2013-07-15 07:47:00,
2013-07-15 03:52:00,70.7,69.8,30.12,North,-999,-999.0,-999.0,96,-99.99,,,-99.99,Homeseer,2013-07-15 07:52:00,
2013-07-15 03:57:00,70.7,69.8,30.12,North,-999,-999.0,-999.0,96,-99.99,,,-99.99,Homeseer,2013-07-15 07:57:00,
2013-07-15 04:02:00,70.5,69.6,30.12,North,-999,-999.0,-999.0,96,-99.99,,,-99.99,Homeseer,2013-07-15 08:02:00,
2013-07-15 04:07:00,70.4,69.5,30.12,North,-999,-999.0,-999.0,96,-99.99,,,-99.99,Homeseer,2013-07-15 08:07:00,
2013-07-15 04:12:00,70.4,69.5,30.13,North,-999,-999.0,-999.0,96,-99.99,,,-99.99,Homeseer,2013-07-15 08:12:00,
2013-07-15 04:17:00,70.4,69.5,30.13,North,-999,-999.0,-999.0,96,-99.99,,,-99.99,Homeseer,2013-07-15 08:17:00,
2013-07-15 04:22:00,70.3,69.4,30.13,North,-999,-999.0,-999.0,96,-99.99,,,-99.99,Homeseer,2013-07-15 08:22:00,
2013-07-15 04:27:00,70.1,69.2,30.13,North,-999,-999.0,-999.0,96,-99.99,,,-99.99,Homeseer,2013-07-15 08:27:00,
2013-07-15 04:32:00,70.1,69.2,30.13,North,-999,-999.0,-999.0,96,-99.99,,,-99.99,Homeseer,2013-07-15 08:32:00,
2013-07-15 04:37:00,69.8,69.1,30.12,North,-999,-999.0,-999.0,97,-99.99,,,-99.99,Homeseer,2013-07-15 08:37:00,
2013-07-15 04:42:00,69.8,69.1,30.13,North,-999,-999.0,-999.0,97,-99.99,,,-99.99,Homeseer,2013-07-15 08:42:00,
2013-07-15 04:47:00,69.8,69.1,30.13,North,-999,-999.0,-999.0,97,-99.99,,,-99.99,Homeseer,2013-07-15 08:47:00,
2013-07-15 04:52:00,69.8,68.9,30.13,North,-999,-999.0,-999.0,96,-99.99,,,-99.99,Homeseer,2013-07-15 08:52:00,
2013-07-15 04:57:00,69.7,68.8,30.12,North,-999,-999.0,-999.0,96,-99.99,,,-99.99,Homeseer,2013-07-15 08:57:00,
2013-07-15 05:02:00,69.6,68.7,30.12,North,-999,-999.0,-999.0,96,-99.99,,,-99.99,Homeseer,2013-07-15 09:02:00,
2013-07-15 05:07:00,69.5,68.6,30.12,North,-999,-999.0,-999.0,96,-99.99,,,-99.99,Homeseer,2013-07-15 09:07:00,
2013-07-15 05:12:00,69.4,68.2,30.12,North,-999,-999.0,-999.0,95,-99.99,,,-99.99,Homeseer,2013-07-15 09:12:00,
2013-07-15 05:17:00,69.2,68.5,30.12,North,-999,-999.0,-999.0,97,-99.99,,,-99.99,Homeseer,2013-07-15 09:17:00,
2013-07-15 05:22:00,69.2,68.5,30.12,North,-999,-999.0,-999.0,97,-99.99,,,-99.99,Homeseer,2013-07-15 09:22:00,
2013-07-15 05:27:00,69.2,68.0,30.13,North,-999,-999.0,-999.0,95,-99.99,,,-99.99,Homeseer,2013-07-15 09:27:00,
2013-07-15 05:32:00,69.2,68.3,30.13,North,-999,-999.0,-999.0,96,-99.99,,,-99.99,Homeseer,2013-07-15 09:32:00,
2013-07-15 05:37:00,69.0,68.3,30.13,North,-999,-999.0,-999.0,97,-99.99,,,-99.99,Homeseer,2013-07-15 09:37:00,
2013-07-15 05:42:00,69.0,68.3,30.13,North,-999,-999.0,-999.0,97,-99.99,,,-99.99,Homeseer,2013-07-15 09:42:00,
2013-07-15 05:47:00,69.0,68.3,30.13,North,-999,-999.0,-999.0,97,-99.99,,,-99.99,Homeseer,2013-07-15 09:47:00,
2013-07-15 05:52:00,68.9,68.2,30.13,North,-999,-999.0,-999.0,97,-99.99,,,-99.99,Homeseer,2013-07-15 09:52:00,
2013-07-15 05:55:00,68.9,68.2,30.13,North,-999,-999.0,-999.0,97,-99.99,,,-99.99,Homeseer,2013-07-15 09:55:00,
2013-07-15 06:00:00,68.9,68.2,30.13,North,-999,-999.0,-999.0,97,-99.99,,,-99.99,Homeseer,2013-07-15 10:00:00,
2013-07-15 06:05:00,68.9,68.2,30.13,North,-999,-999.0,-999.0,97,-99.99,,,-99.99,Homeseer,2013-07-15 10:05:00,
2013-07-15 06:10:00,69.0,68.3,30.13,North,-999,-999.0,-999.0,97,-99.99,,,-99.99,Homeseer,2013-07-15 10:10:00,
2013-07-15 06:15:00,69.2,68.5,30.13,North,-999,-999.0,-999.0,97,-99.99,,,-99.99,Homeseer,2013-07-15 10:15:00,
2013-07-15 06:20:00,69.3,68.6,30.13,North,-999,-999.0,-999.0,97,-99.99,,,-99.99,Homeseer,2013-07-15 10:20:00,
2013-07-15 06:25:00,69.4,68.7,30.13,North,-999,-999.0,-999.0,97,-99.99,,,-99.99,Homeseer,2013-07-15 10:25:00,
2013-07-15 06:30:00,69.6,68.9,30.13,North,-999,-999.0,-999.0,97,-99.99,,,-99.99,Homeseer,2013-07-15 10:30:00,
2013-07-15 06:35:00,69.8,69.1,30.13,North,-999,-999.0,-999.0,97,-99.99,,,-99.99,Homeseer,2013-07-15 10:35:00,
2013-07-15 06:40:00,70.1,69.4,30.14,North,-999,-999.0,-999.0,97,-99.99,,,-99.99,Homeseer,2013-07-15 10:40:00,
2013-07-15 06:45:00,70.3,69.6,30.13,North,-999,-999.0,-999.0,97,-99.99,,,-99.99,Homeseer,2013-07-15 10:45:00,
2013-07-15 06:50:00,70.4,69.7,30.13,North,-999,-999.0,-999.0,97,-99.99,,,-99.99,Homeseer,2013-07-15 10:50:00,
2013-07-15 06:55:00,70.5,69.8,30.13,North,-999,-999.0,-999.0,97,-99.99,,,-99.99,Homeseer,2013-07-15 10:55:00,
2013-07-15 07:00:00,70.8,70.1,30.13,North,-999,-999.0,-999.0,97,-99.99,,,-99.99,Homeseer,2013-07-15 11:00:00,
2013-07-15 07:05:00,71.0,70.3,30.13,North,-999,-999.0,-999.0,97,-99.99,,,-99.99,Homeseer,2013-07-15 11:05:00,
2013-07-15 07:10:00,71.3,70.6,30.14,North,-999,-999.0,-999.0,97,-99.99,,,-99.99,Homeseer,2013-07-15 11:10:00,
2013-07-15 07:15:00,71.5,70.8,30.13,North,-999,-999.0,-999.0,97,-99.99,,,-99.99,Homeseer,2013-07-15 11:15:00,
2013-07-15 07:20:00,71.9,71.2,30.14,North,-999,-999.0,-999.0,97,-99.99,,,-99.99,Homeseer,2013-07-15 11:20:00,
2013-07-15 07:25:00,72.2,71.5,30.14,North,-999,-999.0,-999.0,97,-99.99,,,-99.99,Homeseer,2013-07-15 11:25:00,
2013-07-15 07:30:00,72.4,71.7,30.13,North,-999,-999.0,-999.0,97,-99.99,,,-99.99,Homeseer,2013-07-15 11:30:00,
2013-07-15 07:35:00,72.6,71.9,30.14,North,-999,-999.0,-999.0,97,-99.99,,,-99.99,Homeseer,2013-07-15 11:35:00,
2013-07-15 07:40:00,73.0,72.3,30.14,North,-999,-999.0,-999.0,97,-99.99,,,-99.99,Homeseer,2013-07-15 11:40:00,
2013-07-15 07:45:00,73.7,73.0,30.14,North,-999,-999.0,-999.0,97,-99.99,,,-99.99,Homeseer,2013-07-15 11:45:00,
2013-07-15 07:50:00,74.3,73.3,30.14,North,-999,-999.0,-999.0,96,-99.99,,,-99.99,Homeseer,2013-07-15 11:50:00,
2013-07-15 07:55:00,75.0,73.8,30.14,North,-999,-999.0,-999.0,95,-99.99,,,-99.99,Homeseer,2013-07-15 11:55:00,
2013-07-15 08:00:00,75.8,74.1,30.14,North,-999,-999.0,-999.0,93,-99.99,,,-99.99,Homeseer,2013-07-15 12:00:00,
2013-07-15 08:05:00,77.4,74.6,30.14,North,-999,-999.0,-999.0,89,-99.99,,,-99.99,Homeseer,2013-07-15 12:05:00,
2013-07-15 08:10:00,78.4,75.3,30.14,North,-999,-999.0,-999.0,88,-99.99,,,-99.99,Homeseer,2013-07-15 12:10:00,
2013-07-15 08:15:00,79.8,76.7,30.14,North,-999,-999.0,-999.0,88,-99.99,,,-99.99,Homeseer,2013-07-15 12:15:00,
2013-07-15 08:20:00,81.4,77.7,30.14,North,-999,-999.0,-999.0,86,-99.99,,,-99.99,Homeseer,2013-07-15 12:20:00,
2013-07-15 08:25:00,82.7,77.3,30.13,North,-999,-999.0,-999.0,80,-99.99,,,-99.99,Homeseer,2013-07-15 12:25:00,
2013-07-15 08:30:00,83.6,77.5,30.14,North,-999,-999.0,-999.0,78,-99.99,,,-99.99,Homeseer,2013-07-15 12:30:00,
2013-07-15 08:35:00,84.5,77.4,30.14,North,-999,-999.0,-999.0,75,-99.99,,,-99.99,Homeseer,2013-07-15 12:35:00,
2013-07-15 08:40:00,84.7,76.0,30.13,North,-999,-999.0,-999.0,70,-99.99,,,-99.99,Homeseer,2013-07-15 12:40:00,
2013-07-15 08:45:00,84.9,76.9,30.13,North,-999,-999.0,-999.0,72,-99.99,,,-99.99,Homeseer,2013-07-15 12:45:00,
2013-07-15 08:50:00,85.0,77.3,30.13,North,-999,-999.0,-999.0,73,-99.99,,,-99.99,Homeseer,2013-07-15 12:50:00,
2013-07-15 08:55:00,85.0,76.6,30.13,North,-999,-999.0,-999.0,71,-99.99,,,-99.99,Homeseer,2013-07-15 12:55:00,
2013-07-15 09:00:00,85.0,76.6,30.13,North,-999,-999.0,-999.0,71,-99.99,,,-99.99,Homeseer,2013-07-15 13:00:00,
2013-07-15 09:05:00,85.6,76.8,30.13,North,-999,-999.0,-999.0,70,-99.99,,,-99.99,Homeseer,2013-07-15 13:05:00,
2013-07-15 09:10:00,85.6,76.8,30.13,North,-999,-999.0,-999.0,70,-99.99,,,-99.99,Homeseer,2013-07-15 13:10:00,
2013-07-15 09:15:00,85.1,77.4,30.13,North,-999,-999.0,-999.0,73,-99.99,,,-99.99,Homeseer,2013-07-15 13:15:00,
2013-07-15 09:20:00,84.6,76.9,30.13,North,-999,-999.0,-999.0,73,-99.99,,,-99.99,Homeseer,2013-07-15 13:20:00,
2013-07-15 09:25:00,84.0,76.0,30.13,North,-999,-999.0,-999.0,72,-99.99,,,-99.99,Homeseer,2013-07-15 13:25:00,
2013-07-15 09:30:00,84.6,76.6,30.13,North,-999,-999.0,-999.0,72,-99.99,,,-99.99,Homeseer,2013-07-15 13:30:00,
2013-07-15 09:35:00,85.7,76.9,30.12,North,-999,-999.0,-999.0,70,-99.99,,,-99.99,Homeseer,2013-07-15 13:35:00,
2013-07-15 09:40:00,86.2,76.4,30.12,North,-999,-999.0,-999.0,67,-99.99,,,-99.99,Homeseer,2013-07-15 13:40:00,
2013-07-15 09:45:00,87.2,76.6,30.12,North,-999,-999.0,-999.0,65,-99.99,,,-99.99,Homeseer,2013-07-15 13:45:00,
2013-07-15 09:50:00,86.7,76.1,30.12,North,-999,-999.0,-999.0,65,-99.99,,,-99.99,Homeseer,2013-07-15 13:50:00,
2013-07-15 09:55:00,86.3,75.4,30.11,North,-999,-999.0,-999.0,64,-99.99,,,-99.99,Homeseer,2013-07-15 13:55:00,
2013-07-15 10:00:00,86.3,76.1,30.12,North,-999,-999.0,-999.0,66,-99.99,,,-99.99,Homeseer,2013-07-15 14:00:00,
2013-07-15 10:05:00,86.5,76.6,30.12,North,-999,-999.0,-999.0,67,-99.99,,,-99.99,Homeseer,2013-07-15 14:05:00,
2013-07-15 10:10:00,86.6,74.9,30.12,North,-999,-999.0,-999.0,62,-99.99,,,-99.99,Homeseer,2013-07-15 14:10:00,
2013-07-15 10:15:00,86.3,77.5,30.12,North,-999,-999.0,-999.0,70,-99.99,,,-99.99,Homeseer,2013-07-15 14:15:00,
2013-07-15 10:20:00,86.2,74.9,30.12,North,-999,-999.0,-999.0,63,-99.99,,,-99.99,Homeseer,2013-07-15 14:20:00,
2013-07-15 10:25:00,86.4,76.2,30.12,North,-999,-999.0,-999.0,66,-99.99,,,-99.99,Homeseer,2013-07-15 14:25:00,
2013-07-15 10:30:00,87.3,78.5,30.11,North,-999,-999.0,-999.0,70,-99.99,,,-99.99,Homeseer,2013-07-15 14:30:00,
2013-07-15 10:35:00,88.2,77.5,30.11,North,-999,-999.0,-999.0,65,-99.99,,,-99.99,Homeseer,2013-07-15 14:35:00,
2013-07-15 10:40:00,88.8,77.3,30.11,North,-999,-999.0,-999.0,63,-99.99,,,-99.99,Homeseer,2013-07-15 14:40:00,
2013-07-15 10:45:00,88.7,78.0,30.11,North,-999,-999.0,-999.0,65,-99.99,,,-99.99,Homeseer,2013-07-15 14:45:00,
2013-07-15 10:50:00,89.3,77.8,30.11,North,-999,-999.0,-999.0,63,-99.99,,,-99.99,Homeseer,2013-07-15 14:50:00,
2013-07-15 10:55:00,89.5,76.8,30.11,North,-999,-999.0,-999.0,60,-99.99,,,-99.99,Homeseer,2013-07-15 14:55:00,
2013-07-15 11:00:00,89.8,77.1,30.11,North,-999,-999.0,-999.0,60,-99.99,,,-99.99,Homeseer,2013-07-15 15:00:00,
2013-07-15 11:05:00,89.2,77.3,30.11,North,-999,-999.0,-999.0,62,-99.99,,,-99.99,Homeseer,2013-07-15 15:05:00,
2013-07-15 11:11:00,89.0,75.9,30.11,North,-999,-999.0,-999.0,59,-99.99,,,-99.99,Homeseer,2013-07-15 15:11:00,
2013-07-15 11:16:00,89.4,78.3,30.11,North,-999,-999.0,-999.0,64,-99.99,,,-99.99,Homeseer,2013-07-15 15:16:00,
2013-07-15 11:21:00,89.3,75.8,30.11,North,-999,-999.0,-999.0,58,-99.99,,,-99.99,Homeseer,2013-07-15 15:21:00,
2013-07-15 11:28:00,89.5,76.4,30.10,North,-999,-999.0,-999.0,59,-99.99,,,-99.99,Homeseer,2013-07-15 15:28:00,
2013-07-15 11:34:00,89.6,77.3,30.10,North,-999,-999.0,-999.0,61,-99.99,,,-99.99,Homeseer,2013-07-15 15:34:00,
2013-07-15 11:39:00,90.0,76.0,30.09,North,-999,-999.0,-999.0,57,-99.99,,,-99.99,Homeseer,2013-07-15 15:39:00,
2013-07-15 11:44:00,89.4,76.3,30.09,North,-999,-999.0,-999.0,59,-99.99,,,-99.99,Homeseer,2013-07-15 15:44:00,
2013-07-15 11:49:00,89.0,76.3,30.09,North,-999,-999.0,-999.0,60,-99.99,,,-99.99,Homeseer,2013-07-15 15:49:00,
2013-07-15 11:54:00,89.2,76.9,30.09,North,-999,-999.0,-999.0,61,-99.99,,,-99.99,Homeseer,2013-07-15 15:54:00,
2013-07-15 11:59:00,88.8,76.9,30.09,North,-999,-999.0,-999.0,62,-99.99,,,-99.99,Homeseer,2013-07-15 15:59:00,
2013-07-15 12:04:00,89.0,77.5,30.09,North,-999,-999.0,-999.0,63,-99.99,,,-99.99,Homeseer,2013-07-15 16:04:00,
2013-07-15 12:09:00,89.6,76.1,30.08,North,-999,-999.0,-999.0,58,-99.99,,,-99.99,Homeseer,2013-07-15 16:09:00,
2013-07-15 12:14:00,90.9,78.1,30.08,North,-999,-999.0,-999.0,60,-99.99,,,-99.99,Homeseer,2013-07-15 16:14:00,
2013-07-15 12:19:00,91.4,76.5,30.09,North,-999,-999.0,-999.0,55,-99.99,,,-99.99,Homeseer,2013-07-15 16:19:00,
2013-07-15 12:24:00,90.3,76.3,30.08,North,-999,-999.0,-999.0,57,-99.99,,,-99.99,Homeseer,2013-07-15 16:24:00,
2013-07-15 12:29:00,89.8,76.7,30.08,North,-999,-999.0,-999.0,59,-99.99,,,-99.99,Homeseer,2013-07-15 16:29:00,
2013-07-15 12:34:00,89.5,76.4,30.07,North,-999,-999.0,-999.0,59,-99.99,,,-99.99,Homeseer,2013-07-15 16:34:00,
2013-07-15 12:40:00,90.4,75.6,30.07,North,-999,-999.0,-999.0,55,-99.99,,,-99.99,Homeseer,2013-07-15 16:40:00,
2013-07-15 12:45:00,91.8,75.5,30.07,North,-999,-999.0,-999.0,52,-99.99,,,-99.99,Homeseer,2013-07-15 16:45:00,
2013-07-15 12:50:00,92.1,79.2,30.07,North,-999,-999.0,-999.0,60,-99.99,,,-99.99,Homeseer,2013-07-15 16:50:00,
2013-07-15 12:55:00,92.6,77.1,30.07,North,-999,-999.0,-999.0,54,-99.99,,,-99.99,Homeseer,2013-07-15 16:55:00,
2013-07-15 13:01:00,92.9,77.4,30.07,North,-999,-999.0,-999.0,54,-99.99,,,-99.99,Homeseer,2013-07-15 17:01:00,
2013-07-15 13:06:00,93.6,76.7,30.07,North,-999,-999.0,-999.0,51,-99.99,,,-99.99,Homeseer,2013-07-15 17:06:00,
2013-07-15 13:12:00,93.6,77.1,30.06,North,-999,-999.0,-999.0,52,-99.99,,,-99.99,Homeseer,2013-07-15 17:12:00,
2013-07-15 13:17:00,92.7,77.7,30.06,North,-999,-999.0,-999.0,55,-99.99,,,-99.99,Homeseer,2013-07-15 17:17:00,
2013-07-15 13:22:00,92.2,78.1,30.06,North,-999,-999.0,-999.0,57,-99.99,,,-99.99,Homeseer,2013-07-15 17:22:00,
2013-07-15 13:27:00,91.8,76.0,30.06,North,-999,-999.0,-999.0,53,-99.99,,,-99.99,Homeseer,2013-07-15 17:27:00,
2013-07-15 13:32:00,91.6,77.5,30.06,North,-999,-999.0,-999.0,57,-99.99,,,-99.99,Homeseer,2013-07-15 17:32:00,
2013-07-15 13:37:00,91.3,76.4,30.06,North,-999,-999.0,-999.0,55,-99.99,,,-99.99,Homeseer,2013-07-15 17:37:00,
2013-07-15 13:42:00,91.7,77.2,30.06,North,-999,-999.0,-999.0,56,-99.99,,,-99.99,Homeseer,2013-07-15 17:42:00,
2013-07-15 13:47:00,92.2,76.8,30.05,North,-999,-999.0,-999.0,54,-99.99,,,-99.99,Homeseer,2013-07-15 17:47:00,
2013-07-15 13:52:00,92.8,76.9,30.06,North,-999,-999.0,-999.0,53,-99.99,,,-99.99,Homeseer,2013-07-15 17:52:00,
2013-07-15 13:57:00,91.9,76.1,30.06,North,-999,-999.0,-999.0,53,-99.99,,,-99.99,Homeseer,2013-07-15 17:57:00,
2013-07-15 14:02:00,90.6,76.6,30.05,North,-999,-999.0,-999.0,57,-99.99,,,-99.99,Homeseer,2013-07-15 18:02:00,
2013-07-15 14:07:00,90.5,74.8,30.05,North,-999,-999.0,-999.0,53,-99.99,,,-99.99,Homeseer,2013-07-15 18:07:00,
2013-07-15 14:12:00,90.5,74.8,30.05,North,-999,-999.0,-999.0,53,-99.99,,,-99.99,Homeseer,2013-07-15 18:12:00,
2013-07-15 14:17:00,89.6,74.0,30.05,North,-999,-999.0,-999.0,53,-99.99,,,-99.99,Homeseer,2013-07-15 18:17:00,
2013-07-15 14:22:00,89.8,75.0,30.05,North,-999,-999.0,-999.0,55,-99.99,,,-99.99,Homeseer,2013-07-15 18:22:00,
2013-07-15 14:27:00,89.3,75.0,30.05,North,-999,-999.0,-999.0,56,-99.99,,,-99.99,Homeseer,2013-07-15 18:27:00,
2013-07-15 14:32:00,90.1,74.0,30.05,North,-999,-999.0,-999.0,52,-99.99,,,-99.99,Homeseer,2013-07-15 18:32:00,
2013-07-15 14:37:00,90.6,73.0,30.05,North,-999,-999.0,-999.0,49,-99.99,,,-99.99,Homeseer,2013-07-15 18:37:00,
2013-07-15 14:42:00,91.3,75.1,30.04,North,-999,-999.0,-999.0,52,-99.99,,,-99.99,Homeseer,2013-07-15 18:42:00,
2013-07-15 14:47:00,91.0,75.2,30.04,North,-999,-999.0,-999.0,53,-99.99,,,-99.99,Homeseer,2013-07-15 18:47:00,
2013-07-15 14:53:00,90.1,73.1,30.04,North,-999,-999.0,-999.0,50,-99.99,,,-99.99,Homeseer,2013-07-15 18:53:00,
2013-07-15 14:58:00,90.0,73.0,30.04,North,-999,-999.0,-999.0,50,-99.99,,,-99.99,Homeseer,2013-07-15 18:58:00,
2013-07-15 15:03:00,89.9,74.7,30.04,North,-999,-999.0,-999.0,54,-99.99,,,-99.99,Homeseer,2013-07-15 19:03:00,
2013-07-15 15:09:00,90.2,75.4,30.03,North,-999,-999.0,-999.0,55,-99.99,,,-99.99,Homeseer,2013-07-15 19:09:00,
2013-07-15 15:14:00,90.6,74.4,30.03,North,-999,-999.0,-999.0,52,-99.99,,,-99.99,Homeseer,2013-07-15 19:14:00,
2013-07-15 15:19:00,90.6,75.3,30.03,North,-999,-999.0,-999.0,54,-99.99,,,-99.99,Homeseer,2013-07-15 19:19:00,
2013-07-15 15:24:00,90.3,75.0,30.03,North,-999,-999.0,-999.0,54,-99.99,,,-99.99,Homeseer,2013-07-15 19:24:00,
2013-07-15 15:30:00,89.0,75.1,30.03,North,-999,-999.0,-999.0,57,-99.99,,,-99.99,Homeseer,2013-07-15 19:30:00,
2013-07-15 15:36:00,89.0,74.7,30.03,North,-999,-999.0,-999.0,56,-99.99,,,-99.99,Homeseer,2013-07-15 19:36:00,
2013-07-15 15:41:00,89.0,75.1,30.03,North,-999,-999.0,-999.0,57,-99.99,,,-99.99,Homeseer,2013-07-15 19:41:00,
2013-07-15 15:48:00,89.1,75.2,30.02,North,-999,-999.0,-999.0,57,-99.99,,,-99.99,Homeseer,2013-07-15 19:48:00,
2013-07-15 15:53:00,88.8,75.8,30.03,North,-999,-999.0,-999.0,59,-99.99,,,-99.99,Homeseer,2013-07-15 19:53:00,
2013-07-15 15:58:00,88.7,77.2,30.02,North,-999,-999.0,-999.0,63,-99.99,,,-99.99,Homeseer,2013-07-15 19:58:00,
2013-07-15 16:03:00,88.6,77.1,30.02,North,-999,-999.0,-999.0,63,-99.99,,,-99.99,Homeseer,2013-07-15 20:03:00,
2013-07-15 16:08:00,88.4,77.7,30.02,North,-999,-999.0,-999.0,65,-99.99,,,-99.99,Homeseer,2013-07-15 20:08:00,
2013-07-15 16:13:00,88.4,78.1,30.02,North,-999,-999.0,-999.0,66,-99.99,,,-99.99,Homeseer,2013-07-15 20:13:00,
2013-07-15 16:18:00,88.1,77.4,30.01,North,-999,-999.0,-999.0,65,-99.99,,,-99.99,Homeseer,2013-07-15 20:18:00,
2013-07-15 16:23:00,87.8,76.4,30.02,North,-999,-999.0,-999.0,63,-99.99,,,-99.99,Homeseer,2013-07-15 20:23:00,
2013-07-15 16:28:00,87.6,77.0,30.01,North,-999,-999.0,-999.0,65,-99.99,,,-99.99,Homeseer,2013-07-15 20:28:00,
2013-07-15 16:33:00,87.3,77.4,30.01,North,-999,-999.0,-999.0,67,-99.99,,,-99.99,Homeseer,2013-07-15 20:33:00,
2013-07-15 17:12:00,86.3,77.8,30.00,North,-999,-999.0,-999.0,71,-99.99,,,-99.99,Homeseer,2013-07-15 21:12:00,
2013-07-15 17:18:00,85.9,77.8,29.99,North,-999,-999.0,-999.0,72,-99.99,,,-99.99,Homeseer,2013-07-15 21:18:00,
2013-07-15 17:23:00,85.7,77.6,29.99,North,-999,-999.0,-999.0,72,-99.99,,,-99.99,Homeseer,2013-07-15 21:23:00,
2013-07-15 17:29:00,84.9,77.5,29.99,North,-999,-999.0,-999.0,74,-99.99,,,-99.99,Homeseer,2013-07-15 21:29:00,
2013-07-15 17:36:00,83.9,77.2,29.99,North,-999,-999.0,-999.0,76,-99.99,,,-99.99,Homeseer,2013-07-15 21:36:00,
2013-07-15 17:41:00,83.4,77.3,29.99,North,-999,-999.0,-999.0,78,-99.99,,,-99.99,Homeseer,2013-07-15 21:41:00,
2013-07-15 17:46:00,83.1,77.0,29.99,North,-999,-999.0,-999.0,78,-99.99,,,-99.99,Homeseer,2013-07-15 21:46:00,
2013-07-15 17:51:00,82.9,76.8,29.98,North,-999,-999.0,-999.0,78,-99.99,,,-99.99,Homeseer,2013-07-15 21:51:00,
2013-07-15 17:56:00,82.6,77.2,29.98,North,-999,-999.0,-999.0,80,-99.99,,,-99.99,Homeseer,2013-07-15 21:56:00,
2013-07-15 18:01:00,82.2,76.8,29.99,North,-999,-999.0,-999.0,80,-99.99,,,-99.99,Homeseer,2013-07-15 22:01:00,
2013-07-15 18:06:00,81.9,76.5,29.99,North,-999,-999.0,-999.0,80,-99.99,,,-99.99,Homeseer,2013-07-15 22:06:00,
2013-07-15 18:11:00,81.6,76.2,29.99,North,-999,-999.0,-999.0,80,-99.99,,,-99.99,Homeseer,2013-07-15 22:11:00,
2013-07-15 18:17:00,81.1,75.7,29.98,North,-999,-999.0,-999.0,80,-99.99,,,-99.99,Homeseer,2013-07-15 22:17:00,
2013-07-15 18:22:00,80.9,75.8,29.99,North,-999,-999.0,-999.0,81,-99.99,,,-99.99,Homeseer,2013-07-15 22:22:00,
2013-07-15 18:27:00,80.8,75.7,29.99,North,-999,-999.0,-999.0,81,-99.99,,,-99.99,Homeseer,2013-07-15 22:27:00,
2013-07-15 18:32:00,80.8,76.3,29.99,North,-999,-999.0,-999.0,83,-99.99,,,-99.99,Homeseer,2013-07-15 22:32:00,
2013-07-15 18:37:00,80.5,76.3,29.99,North,-999,-999.0,-999.0,84,-99.99,,,-99.99,Homeseer,2013-07-15 22:37:00,
2013-07-15 18:42:00,80.6,76.4,29.99,North,-999,-999.0,-999.0,84,-99.99,,,-99.99,Homeseer,2013-07-15 22:42:00,
2013-07-15 18:47:00,80.6,76.4,29.99,North,-999,-999.0,-999.0,84,-99.99,,,-99.99,Homeseer,2013-07-15 22:47:00,
2013-07-15 18:52:00,80.6,76.4,29.98,North,-999,-999.0,-999.0,84,-99.99,,,-99.99,Homeseer,2013-07-15 22:52:00,
2013-07-15 18:57:00,80.9,76.7,29.99,North,-999,-999.0,-999.0,84,-99.99,,,-99.99,Homeseer,2013-07-15 22:57:00,
2013-07-15 19:02:00,80.6,76.7,29.99,North,-999,-999.0,-999.0,85,-99.99,,,-99.99,Homeseer,2013-07-15 23:02:00,
2013-07-15 19:07:00,80.6,76.7,29.99,North,-999,-999.0,-999.0,85,-99.99,,,-99.99,Homeseer,2013-07-15 23:07:00,
2013-07-15 19:12:00,80.3,76.9,29.99,North,-999,-999.0,-999.0,87,-99.99,,,-99.99,Homeseer,2013-07-15 23:12:00,
2013-07-15 19:17:00,80.4,76.8,29.99,North,-999,-999.0,-999.0,86,-99.99,,,-99.99,Homeseer,2013-07-15 23:17:00,
2013-07-15 19:22:00,80.4,77.0,29.99,North,-999,-999.0,-999.0,87,-99.99,,,-99.99,Homeseer,2013-07-15 23:22:00,
2013-07-15 19:27:00,80.4,76.5,29.99,North,-999,-999.0,-999.0,85,-99.99,,,-99.99,Homeseer,2013-07-15 23:27:00,
2013-07-15 19:32:00,80.4,76.2,29.99,North,-999,-999.0,-999.0,84,-99.99,,,-99.99,Homeseer,2013-07-15 23:32:00,
2013-07-15 19:38:00,80.3,76.4,29.99,North,-999,-999.0,-999.0,85,-99.99,,,-99.99,Homeseer,2013-07-15 23:38:00,
2013-07-15 19:43:00,80.3,76.4,29.99,North,-999,-999.0,-999.0,85,-99.99,,,-99.99,Homeseer,2013-07-15 23:43:00,
2013-07-15 19:49:00,80.0,76.4,29.99,North,-999,-999.0,-999.0,86,-99.99,,,-99.99,Homeseer,2013-07-15 23:49:00,
2013-07-15 19:54:00,79.5,76.2,29.99,North,-999,-999.0,-999.0,87,-99.99,,,-99.99,Homeseer,2013-07-15 23:54:00,
2013-07-15 19:59:00,79.3,76.0,29.99,North,-999,-999.0,-999.0,87,-99.99,,,-99.99,Homeseer,2013-07-15 23:59:00,
2013-07-15 20:04:00,79.3,75.7,29.99,North,-999,-999.0,-999.0,86,-99.99,,,-99.99,Homeseer,2013-07-16 00:04:00,
2013-07-15 20:09:00,79.1,75.5,29.99,North,-999,-999.0,-999.0,86,-99.99,,,-99.99,Homeseer,2013-07-16 00:09:00,
2013-07-15 20:14:00,78.6,75.0,29.99,North,-999,-999.0,-999.0,86,-99.99,,,-99.99,Homeseer,2013-07-16 00:14:00,
2013-07-15 20:19:00,78.2,74.9,29.99,North,-999,-999.0,-999.0,87,-99.99,,,-99.99,Homeseer,2013-07-16 00:19:00,
2013-07-15 20:24:00,77.9,74.3,30.00,North,-999,-999.0,-999.0,86,-99.99,,,-99.99,Homeseer,2013-07-16 00:24:00,
2013-07-15 20:30:00,77.6,73.7,30.00,North,-999,-999.0,-999.0,85,-99.99,,,-99.99,Homeseer,2013-07-16 00:30:00,
2013-07-15 20:35:00,77.3,73.7,30.00,North,-999,-999.0,-999.0,86,-99.99,,,-99.99,Homeseer,2013-07-16 00:35:00,
2013-07-15 20:40:00,76.9,73.3,30.00,North,-999,-999.0,-999.0,86,-99.99,,,-99.99,Homeseer,2013-07-16 00:40:00,
2013-07-15 20:45:00,76.8,73.2,30.00,North,-999,-999.0,-999.0,86,-99.99,,,-99.99,Homeseer,2013-07-16 00:45:00,
2013-07-15 20:51:00,76.5,72.7,30.01,North,-999,-999.0,-999.0,85,-99.99,,,-99.99,Homeseer,2013-07-16 00:51:00,
2013-07-15 20:57:00,76.0,72.7,30.01,North,-999,-999.0,-999.0,87,-99.99,,,-99.99,Homeseer,2013-07-16 00:57:00,
2013-07-15 21:02:00,75.8,72.8,30.01,North,-999,-999.0,-999.0,88,-99.99,,,-99.99,Homeseer,2013-07-16 01:02:00,
2013-07-15 21:07:00,75.7,72.4,30.01,North,-999,-999.0,-999.0,87,-99.99,,,-99.99,Homeseer,2013-07-16 01:07:00,
2013-07-15 21:12:00,75.6,72.3,30.02,North,-999,-999.0,-999.0,87,-99.99,,,-99.99,Homeseer,2013-07-16 01:12:00,
2013-07-15 21:18:00,75.5,72.2,30.02,North,-999,-999.0,-999.0,87,-99.99,,,-99.99,Homeseer,2013-07-16 01:18:00,
2013-07-15 21:23:00,75.4,72.4,30.02,North,-999,-999.0,-999.0,88,-99.99,,,-99.99,Homeseer,2013-07-16 01:23:00,
2013-07-15 21:28:00,75.2,72.5,30.02,North,-999,-999.0,-999.0,89,-99.99,,,-99.99,Homeseer,2013-07-16 01:28:00,
2013-07-15 21:34:00,75.0,72.3,30.02,North,-999,-999.0,-999.0,89,-99.99,,,-99.99,Homeseer,2013-07-16 01:34:00,
2013-07-15 21:39:00,74.7,72.2,30.02,North,-999,-999.0,-999.0,90,-99.99,,,-99.99,Homeseer,2013-07-16 01:39:00,
2013-07-15 21:44:00,74.4,72.2,30.02,North,-999,-999.0,-999.0,91,-99.99,,,-99.99,Homeseer,2013-07-16 01:44:00,
2013-07-15 21:49:00,74.4,71.9,30.03,North,-999,-999.0,-999.0,90,-99.99,,,-99.99,Homeseer,2013-07-16 01:49:00,
2013-07-15 21:54:00,74.2,71.7,30.02,North,-999,-999.0,-999.0,90,-99.99,,,-99.99,Homeseer,2013-07-16 01:54:00,
2013-07-15 21:59:00,74.1,71.6,30.03,North,-999,-999.0,-999.0,90,-99.99,,,-99.99,Homeseer,2013-07-16 01:59:00,
2013-07-15 22:04:00,73.9,71.4,30.03,North,-999,-999.0,-999.0,90,-99.99,,,-99.99,Homeseer,2013-07-16 02:04:00,
2013-07-15 22:09:00,73.8,71.3,30.03,North,-999,-999.0,-999.0,90,-99.99,,,-99.99,Homeseer,2013-07-16 02:09:00,
2013-07-15 22:14:00,73.7,71.3,30.03,North,-999,-999.0,-999.0,90,-99.99,,,-99.99,Homeseer,2013-07-16 02:14:00,
2013-07-15 22:20:00,73.4,71.0,30.03,North,-999,-999.0,-999.0,90,-99.99,,,-99.99,Homeseer,2013-07-16 02:20:00,
2013-07-15 22:25:00,73.1,71.2,30.03,North,-999,-999.0,-999.0,92,-99.99,,,-99.99,Homeseer,2013-07-16 02:25:00,
2013-07-15 22:31:00,73.1,70.7,30.03,North,-999,-999.0,-999.0,90,-99.99,,,-99.99,Homeseer,2013-07-16 02:31:00,
2013-07-15 22:36:00,73.1,70.7,30.02,North,-999,-999.0,-999.0,90,-99.99,,,-99.99,Homeseer,2013-07-16 02:36:00,
2013-07-15 22:41:00,72.9,70.5,30.03,North,-999,-999.0,-999.0,90,-99.99,,,-99.99,Homeseer,2013-07-16 02:41:00,
2013-07-15 22:46:00,72.8,70.4,30.03,North,-999,-999.0,-999.0,90,-99.99,,,-99.99,Homeseer,2013-07-16 02:46:00,
2013-07-15 22:51:00,72.6,70.4,30.03,North,-999,-999.0,-999.0,91,-99.99,,,-99.99,Homeseer,2013-07-16 02:51:00,
2013-07-15 22:56:00,72.6,70.4,30.03,North,-999,-999.0,-999.0,91,-99.99,,,-99.99,Homeseer,2013-07-16 02:56:00,
2013-07-15 23:01:00,72.5,70.1,30.03,North,-999,-999.0,-999.0,90,-99.99,,,-99.99,Homeseer,2013-07-16 03:01:00,
2013-07-15 23:06:00,72.3,70.1,30.03,North,-999,-999.0,-999.0,91,-99.99,,,-99.99,Homeseer,2013-07-16 03:06:00,
2013-07-15 23:14:00,72.2,70.0,30.03,North,-999,-999.0,-999.0,91,-99.99,,,-99.99,Homeseer,2013-07-16 03:14:00,
2013-07-15 23:19:00,72.2,69.8,30.04,North,-999,-999.0,-999.0,90,-99.99,,,-99.99,Homeseer,2013-07-16 03:19:00,
2013-07-15 23:24:00,72.1,69.9,30.03,North,-999,-999.0,-999.0,91,-99.99,,,-99.99,Homeseer,2013-07-16 03:24:00,
2013-07-15 23:29:00,72.0,69.8,30.04,North,-999,-999.0,-999.0,91,-99.99,,,-99.99,Homeseer,2013-07-16 03:29:00,
2013-07-15 23:35:00,71.9,69.7,30.04,North,-999,-999.0,-999.0,91,-99.99,,,-99.99,Homeseer,2013-07-16 03:35:00,
2013-07-15 23:40:00,71.8,69.9,30.04,North,-999,-999.0,-999.0,92,-99.99,,,-99.99,Homeseer,2013-07-16 03:40:00,
2013-07-15 23:45:00,71.8,69.9,30.04,North,-999,-999.0,-999.0,92,-99.99,,,-99.99,Homeseer,2013-07-16 03:45:00,
2013-07-15 23:51:00,71.8,69.6,30.04,North,-999,-999.0,-999.0,91,-99.99,,,-99.99,Homeseer,2013-07-16 03:51:00,
2013-07-15 23:56:00,71.8,69.9,30.04,North,-999,-999.0,-999.0,92,-99.99,,,-99.99,Homeseer,2013-07-16 03:56:00,